FW4012 Weather Reports


time (UTC)temp
C
wind
direction
speed
KPH
gust
KPH
rain 1hr
cm
rain 24hr
cm
rain mn
cm
humidity
%
barometer
mb
20260503053236 10 321 1.6 3.2 0.00 0.00 0.00 87 1018.2
20260503052808 10 321 0.0 0.0 0.00 0.00 0.00 87 1018.2
20260503052228 10 321 0.0 1.6 0.00 0.00 0.00 87 1018.2
20260503051728 10 321 1.6 1.6 0.00 0.00 0.00 87 1018.1
20260503051228 10 321 0.0 1.6 0.00 0.00 0.00 87 1018.1
20260503050725 9 321 0.0 1.6 0.00 0.00 0.00 87 1018.1
20260503050225 9 321 0.0 3.2 0.00 0.00 0.00 87 1018.1
20260503045742 9 321 0.0 4.8 0.00 0.00 0.00 87 1018.1
20260503045304 8 321 3.2 4.8 0.00 0.00 0.00 87 1018.1
20260503044741 8 319 0.0 4.8 0.00 0.00 0.00 87 1018.1
20260503044249 8 319 0.0 1.6 0.00 0.00 0.00 87 1018.1
20260503043729 8 319 0.0 3.2 0.00 0.00 0.00 87 1018.2
20260503043250 8 319 1.6 3.2 0.00 0.00 0.00 87 1018.1
20260503042728 8 319 1.6 1.6 0.00 0.00 0.00 86 1018.2
20260503042225 8 319 0.0 1.6 0.00 0.00 0.00 86 1018.2
20260503041724 8 319 0.0 3.2 0.00 0.00 0.00 86 1018.2
20260503041242 8 319 1.6 4.8 0.00 0.00 0.00 86 1018.3
20260503040740 8 319 3.2 4.8 0.00 0.00 0.00 86 1018.2
20260503040234 8 319 1.6 4.8 0.00 0.00 0.00 86 1018.2
20260503035804 8 319 3.2 4.8 0.00 0.00 0.00 86 1018.2
20260503035229 8 327 4.8 4.8 0.00 0.00 0.00 86 1018.2
20260503034729 8 329 1.6 3.2 0.00 0.00 0.00 87 1018.2
20260503034227 8 328 1.6 4.8 0.00 0.00 0.00 87 1018.1
20260503033753 8 329 1.6 4.8 0.00 0.00 0.00 87 1018.1
20260503033252 8 328 3.2 4.8 0.00 0.00 0.00 87 1018.2
20260503032811 8 328 1.6 4.8 0.00 0.00 0.00 87 1018.2
20260503032232 8 328 3.2 4.8 0.00 0.00 0.00 87 1018.2
20260503031728 8 327 1.6 4.8 0.00 0.00 0.00 87 1018.2
20260503031229 8 331 3.2 4.8 0.00 0.00 0.00 87 1018.1
20260503030751 8 334 3.2 4.8 0.00 0.00 0.00 87 1018.2
20260503030227 8 334 1.6 3.2 0.00 0.00 0.00 87 1018.3
20260503025727 8 334 1.6 3.2 0.00 0.00 0.00 86 1018.2
20260503025250 8 334 1.6 3.2 0.00 0.00 0.00 87 1018.3
20260503024733 8 334 0.0 0.0 0.00 0.00 0.00 86 1018.3
20260503024250 8 334 0.0 3.2 0.00 0.00 0.00 86 1018.3
20260503023727 8 334 0.0 4.8 0.00 0.00 0.00 86 1018.3
20260503023228 8 335 0.0 6.4 0.00 0.00 0.00 86 1018.2
20260503022728 8 335 4.8 6.4 0.00 0.00 0.00 86 1018.3
20260503022227 8 330 3.2 6.4 0.00 0.00 0.00 86 1018.4
20260503021727 8 330 1.6 3.2 0.00 0.00 0.00 86 1018.4
20260503021248 8 330 1.6 3.2 0.00 0.00 0.00 86 1018.5
20260503020727 8 331 0.0 3.2 0.00 0.00 0.00 86 1018.4
20260503020225 8 331 1.6 4.8 0.00 0.00 0.00 86 1018.5
20260503015741 8 331 3.2 4.8 0.00 0.00 0.00 85 1018.5
20260503015235 8 331 0.0 1.6 0.00 0.00 0.00 85 1018.6
20260503014807 8 331 1.6 6.4 0.00 0.00 0.00 85 1018.4
20260503014244 8 331 3.2 6.4 0.00 0.00 0.00 85 1018.5
20260503013743 8 330 1.6 4.8 0.00 0.00 0.00 85 1018.6
20260503013242 8 330 3.2 4.8 0.00 0.00 0.00 84 1018.5
20260503012803 8 330 1.6 3.2 0.00 0.00 0.00 84 1018.5
20260503012241 8 330 3.2 3.2 0.00 0.00 0.00 84 1018.5
20260503011756 9 330 1.6 4.8 0.00 0.00 0.00 84 1018.5
20260503011230 9 330 3.2 4.8 0.00 0.00 0.00 84 1018.6
20260503010731 9 330 0.0 3.2 0.00 0.00 0.00 83 1018.6
20260503010232 9 330 1.6 4.8 0.00 0.00 0.00 83 1018.7
20260503005732 10 330 3.2 4.8 0.00 0.00 0.00 83 1018.8
20260503005233 10 330 3.2 4.8 0.00 0.00 0.00 83 1018.8
20260503004744 10 331 1.6 4.8 0.00 0.00 0.00 83 1018.9
20260503004304 10 331 3.2 4.8 0.00 0.00 0.00 83 1018.9
20260503003741 10 326 3.2 4.8 0.00 0.00 0.00 83 1019.0
20260503003239 10 326 0.0 3.2 0.00 0.00 0.00 83 1019.1
20260503002800 10 326 0.0 4.8 0.00 0.00 0.00 83 1019.2
20260503002238 10 326 1.6 6.4 0.00 0.00 0.00 84 1019.2
20260503001734 10 326 3.2 6.4 0.00 0.00 0.00 84 1019.3
20260503001234 9 309 0.0 0.0 0.00 0.00 0.00 84 1019.3
20260503000725 9 303 0.0 0.0 0.00 0.00 0.00 84 1019.3
20260503000241 9 303 0.0 0.0 0.00 0.00 0.00 83 1019.3
20260502235740 9 303 0.0 0.0 0.00 0.00 0.00 83 1019.4
20260502235228 9 302 0.0 0.0 0.00 0.00 0.00 83 1019.4
20260502234835 9 302 0.0 0.0 0.00 0.00 0.00 83 1019.6
20260502233735 9 302 0.0 0.0 0.00 0.00 0.00 83 1019.6
20260502233235 10 302 0.0 0.0 0.00 0.00 0.00 83 1019.6
20260502232807 10 302 0.0 0.0 0.00 0.00 0.00 83 1019.6
20260502232224 10 302 0.0 0.0 0.00 0.00 0.00 82 1019.7
20260502231726 10 302 0.0 0.0 0.00 0.00 0.00 83 1019.8
20260502231254 10 302 0.0 0.0 0.00 0.00 0.00 82 1019.6
20260502230746 10 302 0.0 0.0 0.00 0.00 0.00 82 1019.7
20260502230235 10 302 0.0 0.0 0.00 0.00 0.00 82 1019.6
20260502225737 10 302 0.0 0.0 0.00 0.00 0.00 82 1019.8
20260502225257 10 302 0.0 0.0 0.00 0.00 0.00 81 1019.7
20260502224732 10 302 0.0 0.0 0.00 0.00 0.00 81 1019.7
20260502224246 10 302 0.0 0.0 0.00 0.00 0.00 81 1019.8
20260502223734 10 302 0.0 0.0 0.00 0.00 0.00 81 1019.8
20260502223234 10 302 0.0 0.0 0.00 0.00 0.00 81 1019.8
20260502222733 10 302 0.0 0.0 0.00 0.00 0.00 81 1019.7
20260502222251 10 302 0.0 0.0 0.00 0.00 0.00 81 1019.8
20260502221751 10 302 0.0 0.0 0.00 0.00 0.00 80 1019.8
20260502221223 10 302 0.0 0.0 0.00 0.00 0.00 80 1019.8
20260502220750 10 302 0.0 0.0 0.00 0.00 0.00 79 1019.8
20260502220250 10 302 0.0 0.0 0.00 0.00 0.00 79 1019.8
20260502215726 10 302 0.0 0.0 0.00 0.00 0.00 79 1019.7
20260502215240 10 253 0.0 1.6 0.00 0.00 0.00 79 1019.7
20260502214811 10 253 0.0 3.2 0.00 0.00 0.00 79 1019.7
20260502214226 10 253 0.0 3.2 0.00 0.00 0.00 79 1019.7
20260502213744 10 253 1.6 3.2 0.00 0.00 0.00 78 1019.7
20260502213225 10 253 1.6 3.2 0.00 0.00 0.00 78 1019.7
20260502212725 11 253 0.0 1.6 0.00 0.00 0.00 78 1019.7
20260502212226 11 253 0.0 1.6 0.00 0.00 0.00 77 1019.8
20260502211726 11 253 0.0 0.0 0.00 0.00 0.00 77 1019.8
20260502211228 11 253 0.0 0.0 0.00 0.00 0.00 77 1019.8
20260502210728 11 253 0.0 0.0 0.00 0.00 0.00 77 1019.8
20260502210223 11 253 0.0 1.6 0.00 0.00 0.00 77 1019.8
20260502205742 11 253 0.0 3.2 0.00 0.00 0.00 76 1019.9
20260502205241 11 253 1.6 3.2 0.00 0.00 0.00 76 1019.9
20260502204740 11 246 1.6 3.2 0.00 0.00 0.00 76 1019.9
20260502204240 11 229 0.0 3.2 0.00 0.00 0.00 75 1019.9
20260502203736 11 229 0.0 3.2 0.00 0.00 0.00 75 1019.9
20260502203234 11 229 0.0 1.6 0.00 0.00 0.00 75 1019.9
20260502202732 12 229 0.0 1.6 0.00 0.00 0.00 74 1020.0
20260502202231 12 229 0.0 1.6 0.00 0.00 0.00 74 1019.9
20260502201756 12 229 0.0 0.0 0.00 0.00 0.00 74 1019.9
20260502201233 12 229 0.0 0.0 0.00 0.00 0.00 73 1020.0
20260502200734 12 229 0.0 1.6 0.00 0.00 0.00 73 1019.8
20260502200232 12 229 0.0 1.6 0.00 0.00 0.00 73 1019.8
20260502195730 12 229 0.0 0.0 0.00 0.00 0.00 72 1019.8
20260502195226 12 229 0.0 0.0 0.00 0.00 0.00 72 1019.8
20260502194726 13 229 0.0 0.0 0.00 0.00 0.00 72 1019.7
20260502194243 13 229 0.0 0.0 0.00 0.00 0.00 71 1019.6
20260502193722 13 229 0.0 0.0 0.00 0.00 0.00 70 1019.7
20260502193223 13 229 0.0 1.6 0.00 0.00 0.00 70 1019.6
20260502192741 13 229 0.0 1.6 0.00 0.00 0.00 69 1019.5
20260502192241 13 229 0.0 0.0 0.00 0.00 0.00 69 1019.6
20260502191737 14 229 0.0 0.0 0.00 0.00 0.00 68 1019.6
20260502191238 14 229 0.0 0.0 0.00 0.00 0.00 68 1019.5
20260502190739 15 229 0.0 0.0 0.00 0.00 0.00 67 1019.6
20260502190239 15 229 0.0 0.0 0.00 0.00 0.00 66 1019.6
20260502185759 15 229 0.0 0.0 0.00 0.00 0.00 65 1019.5
20260502185238 15 229 0.0 0.0 0.00 0.00 0.00 65 1019.5
20260502184808 16 229 0.0 1.6 0.00 0.00 0.00 64 1019.5
20260502184246 16 229 0.0 3.2 0.00 0.00 0.00 63 1019.6
20260502183724 16 229 0.0 3.2 0.00 0.00 0.00 62 1019.5
20260502183223 17 229 0.0 1.6 0.00 0.00 0.00 61 1019.6
20260502182800 17 229 0.0 1.6 0.00 0.00 0.00 59 1019.6
20260502182240 17 229 0.0 1.6 0.00 0.00 0.00 57 1019.5
20260502181739 18 229 0.0 1.6 0.00 0.00 0.00 55 1019.4
20260502181238 18 229 0.0 1.6 0.00 0.00 0.00 52 1019.3
20260502180738 19 229 0.0 1.6 0.00 0.00 0.00 52 1019.2
20260502180238 19 229 0.0 1.6 0.00 0.00 0.00 51 1019.2
20260502170308 22 235 3.2 8.0 0.00 0.00 0.00 39 1019.1
20260502164240 22 261 4.8 11.3 0.00 0.00 0.00 39 1019.1
20260502163758 22 271 4.8 11.3 0.00 0.00 0.00 38 1019.1
20260502163232 22 133 6.4 11.3 0.00 0.00 0.00 41 1019.2
20260502162730 23 165 4.8 8.0 0.00 0.00 0.00 38 1019.2
20260502162259 23 198 4.8 11.3 0.00 0.00 0.00 38 1019.2
20260502161738 23 221 4.8 11.3 0.00 0.00 0.00 38 1019.3
20260502161238 23 175 3.2 9.7 0.00 0.00 0.00 38 1019.4
20260502160736 23 217 4.8 16.1 0.00 0.00 0.00 38 1019.4
20260502160236 23 207 6.4 16.1 0.00 0.00 0.00 41 1019.6
20260502152235 22 199 4.8 12.9 0.00 0.00 0.00 38 1019.9
20260502151735 23 203 9.7 12.9 0.00 0.00 0.00 40 1020.1
20260502151230 22 238 3.2 8.0 0.00 0.00 0.00 39 1020.0
20260502150747 23 87 3.2 9.7 0.00 0.00 0.00 38 1020.0
20260502150226 23 177 6.4 12.9 0.00 0.00 0.00 38 1020.1
20260502130746 22 107 11.3 16.1 0.00 0.00 0.00 40 1021.6
20260502130248 22 198 6.4 16.1 0.00 0.00 0.00 42 1021.8
20260502123732 21 189 1.6 14.5 0.00 0.00 0.00 45 1022.0
20260502123232 22 133 4.8 14.5 0.00 0.00 0.00 43 1022.2
20260502122731 21 199 4.8 14.5 0.00 0.00 0.00 45 1022.3
20260502122301 21 124 6.4 12.9 0.00 0.00 0.00 46 1022.4
20260502121735 21 23 4.8 12.9 0.00 0.00 0.00 42 1022.4
20260502121236 21 301 8.0 12.9 0.00 0.00 0.00 44 1022.5
20260502120730 21 205 8.0 14.5 0.00 0.00 0.00 42 1022.6
20260502120228 21 238 3.2 16.1 0.00 0.00 0.00 43 1022.5
20260502115727 21 171 4.8 16.1 0.00 0.00 0.00 45 1022.7
20260502115226 21 215 6.4 12.9 0.00 0.00 0.00 42 1022.7
20260502114744 21 347 6.4 14.5 0.00 0.00 0.00 44 1022.7
20260502114225 22 163 3.2 14.5 0.00 0.00 0.00 44 1022.7
20260502113732 21 126 6.4 17.7 0.00 0.00 0.00 49 1022.8
20260502113250 21 107 3.2 17.7 0.00 0.00 0.00 45 1022.9
20260502112747 21 325 3.2 12.9 0.00 0.00 0.00 44 1023.0
20260502112239 21 161 4.8 14.5 0.00 0.00 0.00 46 1023.2
20260502111740 20 194 4.8 11.3 0.00 0.00 0.00 45 1023.3
20260502111240 20 242 6.4 19.3 0.00 0.00 0.00 45 1023.4
20260502110759 20 246 14.5 19.3 0.00 0.00 0.00 45 1023.4
20260502110240 20 264 4.8 12.9 0.00 0.00 0.00 45 1023.4
20260502105738 20 257 8.0 12.9 0.00 0.00 0.00 45 1023.4
20260502105240 20 256 4.8 11.3 0.00 0.00 0.00 43 1023.5
20260502104748 20 313 3.2 12.9 0.00 0.00 0.00 45 1023.5
20260502104246 20 253 6.4 17.7 0.00 0.00 0.00 45 1023.6
20260502103724 20 243 12.9 17.7 0.00 0.00 0.00 43 1023.7
20260502103240 20 225 9.7 16.1 0.00 0.00 0.00 46 1023.7
20260502102739 20 217 3.2 14.5 0.00 0.00 0.00 44 1023.8
20260502102259 20 250 3.2 9.7 0.00 0.00 0.00 47 1023.8
20260502101737 19 36 6.4 9.7 0.00 0.00 0.00 49 1023.9
20260502101238 20 148 6.4 9.7 0.00 0.00 0.00 45 1024.0
20260502100737 21 130 4.8 17.7 0.00 0.00 0.00 44 1024.1
20260502100238 20 121 8.0 17.7 0.00 0.00 0.00 50 1024.1
20260502091250 19 211 0.0 14.5 0.00 0.00 0.00 50 1024.7
20260502090749 18 148 8.0 14.5 0.00 0.00 0.00 51 1024.7
20260502090224 18 71 6.4 11.3 0.00 0.00 0.00 50 1024.7
20260502071226 16 342 4.8 8.0 0.00 0.00 0.00 62 1025.1
20260502070723 16 321 4.8 8.0 0.00 0.00 0.00 62 1025.1
20260502070301 16 319 4.8 6.4 0.00 0.00 0.00 63 1025.2
20260502065740 16 312 4.8 8.0 0.00 0.00 0.00 63 1025.2
20260502065249 16 294 3.2 8.0 0.00 0.00 0.00 64 1025.3
20260502064751 16 328 3.2 8.0 0.00 0.00 0.00 64 1025.2
20260502064248 15 319 4.8 8.0 0.00 0.00 0.00 64 1025.2
20260502063724 15 331 4.8 8.0 0.00 0.00 0.00 66 1025.2
20260502063238 15 324 6.4 8.0 0.00 0.00 0.00 67 1025.2
20260502062744 15 323 4.8 9.7 0.00 0.00 0.00 67 1025.2
20260502062305 15 331 6.4 9.7 0.00 0.00 0.00 67 1025.2
20260502061740 15 320 6.4 8.0 0.00 0.00 0.00 68 1025.1
20260502061257 14 319 4.8 8.0 0.00 0.00 0.00 70 1025.1
20260502060736 13 323 4.8 8.0 0.00 0.00 0.00 72 1025.2
20260502060257 13 318 4.8 8.0 0.00 0.00 0.00 73 1025.2
20260502055735 13 313 6.4 8.0 0.00 0.00 0.00 74 1025.2
20260502055230 12 325 4.8 8.0 0.00 0.00 0.00 76 1025.2
20260502054727 12 311 4.8 8.0 0.00 0.00 0.00 80 1025.2
20260502054223 11 313 4.8 6.4 0.00 0.00 0.00 83 1025.2
20260502053750 11 317 3.2 6.4 0.00 0.00 0.00 85 1025.3